Time,TemperatureF,DewpointF,PressureIn,WindDirection,WindDirectionDegrees,WindSpeedMPH,WindSpeedGustMPH,Humidity,HourlyPrecipIn,Conditions,Clouds,dailyrainin,SoftwareType,DateUTC
2013-06-05 00:00:00,51.7,-99.9,30.04,SE,139,0.0,1.0,0,0.00,,,0.00,Wunderground v.1.15,2013-06-05 07:00:00,
2013-06-05 00:05:00,51.5,-99.9,30.04,SE,139,0.0,1.0,0,0.00,,,0.00,Wunderground v.1.15,2013-06-05 07:05:00,
2013-06-05 00:10:00,51.3,-99.9,30.04,SE,140,0.0,1.0,0,0.00,,,0.00,Wunderground v.1.15,2013-06-05 07:10:00,
2013-06-05 00:15:00,51.2,-99.9,30.04,SE,139,0.0,1.0,0,0.00,,,0.00,Wunderground v.1.15,2013-06-05 07:15:00,
2013-06-05 00:25:00,51.0,-99.9,30.04,SE,139,0.0,1.0,0,0.00,,,0.00,Wunderground v.1.15,2013-06-05 07:25:00,
2013-06-05 00:30:00,50.8,-99.9,30.04,SE,139,0.0,1.0,0,0.00,,,0.00,Wunderground v.1.15,2013-06-05 07:30:00,
2013-06-05 00:35:00,50.6,-99.9,30.04,SE,139,0.0,1.0,0,0.00,,,0.00,Wunderground v.1.15,2013-06-05 07:35:00,
2013-06-05 00:40:00,50.5,-99.9,30.04,SE,139,0.0,1.0,0,0.00,,,0.00,Wunderground v.1.15,2013-06-05 07:40:00,
2013-06-05 00:45:00,50.4,-99.9,30.04,SE,139,0.0,1.0,0,0.00,,,0.00,Wunderground v.1.15,2013-06-05 07:45:00,
2013-06-05 00:55:00,50.3,-99.9,30.04,SE,139,0.0,1.0,0,0.00,,,0.00,Wunderground v.1.15,2013-06-05 07:55:00,
2013-06-05 01:00:00,50.3,-99.9,30.04,SE,139,0.0,1.0,0,0.00,,,0.00,Wunderground v.1.15,2013-06-05 08:00:00,
2013-06-05 01:05:00,50.1,-99.9,30.04,SE,139,0.0,1.0,0,0.00,,,0.00,Wunderground v.1.15,2013-06-05 08:05:00,
2013-06-05 01:10:00,50.1,-99.9,30.04,SE,139,0.0,1.0,0,0.00,,,0.00,Wunderground v.1.15,2013-06-05 08:10:00,
2013-06-05 01:20:00,50.0,-99.9,30.04,SE,139,0.0,1.0,0,0.00,,,0.00,Wunderground v.1.15,2013-06-05 08:20:00,
2013-06-05 01:25:00,49.9,-99.9,30.04,SE,139,0.0,1.0,0,0.00,,,0.00,Wunderground v.1.15,2013-06-05 08:25:00,
2013-06-05 01:30:00,49.8,-99.9,30.04,SE,139,0.0,1.0,0,0.00,,,0.00,Wunderground v.1.15,2013-06-05 08:30:00,
2013-06-05 01:35:00,49.7,-99.9,30.04,SE,139,0.0,1.0,0,0.00,,,0.00,Wunderground v.1.15,2013-06-05 08:35:00,
2013-06-05 01:45:00,49.5,-99.9,30.04,SE,139,0.0,1.0,0,0.00,,,0.00,Wunderground v.1.15,2013-06-05 08:45:00,
2013-06-05 01:50:00,49.5,-99.9,30.04,SE,139,0.0,1.0,0,0.00,,,0.00,Wunderground v.1.15,2013-06-05 08:50:00,
2013-06-05 01:55:00,49.5,-99.9,30.04,SE,139,0.0,1.0,0,0.00,,,0.00,Wunderground v.1.15,2013-06-05 08:55:00,
2013-06-05 02:00:00,49.5,-99.9,30.04,SE,140,0.0,1.0,0,0.00,,,0.00,Wunderground v.1.15,2013-06-05 09:00:00,
2013-06-05 02:05:00,49.5,-99.9,30.03,SE,139,0.0,1.0,0,0.00,,,0.00,Wunderground v.1.15,2013-06-05 09:05:00,
2013-06-05 02:15:00,49.3,-99.9,30.03,SE,139,0.0,1.0,0,0.00,,,0.00,Wunderground v.1.15,2013-06-05 09:15:00,
2013-06-05 02:20:00,49.3,-99.9,30.03,SE,139,0.0,1.0,0,0.00,,,0.00,Wunderground v.1.15,2013-06-05 09:20:00,
2013-06-05 02:25:00,49.3,-99.9,30.03,SE,139,0.0,1.0,0,0.00,,,0.00,Wunderground v.1.15,2013-06-05 09:25:00,
2013-06-05 02:30:00,49.2,-99.9,30.03,SE,139,0.0,1.0,0,0.00,,,0.00,Wunderground v.1.15,2013-06-05 09:30:00,
2013-06-05 02:40:00,49.1,-99.9,30.03,SE,139,0.0,1.0,0,0.00,,,0.00,Wunderground v.1.15,2013-06-05 09:40:00,
2013-06-05 02:45:00,49.1,-99.9,30.03,SE,138,0.0,1.0,0,0.00,,,0.00,Wunderground v.1.15,2013-06-05 09:45:00,
2013-06-05 02:50:00,49.1,-99.9,30.03,SE,138,0.0,1.0,0,0.00,,,0.00,Wunderground v.1.15,2013-06-05 09:50:00,
2013-06-05 02:55:00,49.0,-99.9,30.03,SE,139,0.0,1.0,0,0.00,,,0.00,Wunderground v.1.15,2013-06-05 09:55:00,
2013-06-05 03:05:00,49.2,-99.9,30.03,SE,137,0.0,1.0,0,0.00,,,0.00,Wunderground v.1.15,2013-06-05 10:05:00,
2013-06-05 03:10:00,49.4,-99.9,30.03,SE,137,0.0,1.0,0,0.00,,,0.00,Wunderground v.1.15,2013-06-05 10:10:00,
2013-06-05 03:15:00,49.5,-99.9,30.03,SE,137,0.0,1.0,0,0.00,,,0.00,Wunderground v.1.15,2013-06-05 10:15:00,
2013-06-05 03:20:00,49.7,-99.9,30.03,SE,137,0.0,1.0,0,0.00,,,0.00,Wunderground v.1.15,2013-06-05 10:20:00,
2013-06-05 03:30:00,49.6,-99.9,30.03,SE,136,1.0,1.0,0,0.00,,,0.00,Wunderground v.1.15,2013-06-05 10:30:00,
2013-06-05 03:35:00,49.6,-99.9,30.04,SE,136,0.0,1.0,0,0.00,,,0.00,Wunderground v.1.15,2013-06-05 10:35:00,
2013-06-05 03:40:00,49.4,-99.9,30.04,SE,136,0.0,1.0,0,0.00,,,0.00,Wunderground v.1.15,2013-06-05 10:40:00,
2013-06-05 03:45:00,49.3,-99.9,30.04,SE,137,0.0,1.0,0,0.00,,,0.00,Wunderground v.1.15,2013-06-05 10:45:00,
2013-06-05 03:55:00,49.2,-99.9,30.04,SE,137,0.0,1.0,0,0.00,,,0.00,Wunderground v.1.15,2013-06-05 10:55:00,
2013-06-05 04:00:00,49.2,-99.9,30.04,SE,137,0.0,1.0,0,0.00,,,0.00,Wunderground v.1.15,2013-06-05 11:00:00,
2013-06-05 04:05:00,49.1,-99.9,30.04,SE,137,0.0,1.0,0,0.00,,,0.00,Wunderground v.1.15,2013-06-05 11:05:00,
2013-06-05 04:10:00,49.1,-99.9,30.04,SE,137,0.0,1.0,0,0.00,,,0.00,Wunderground v.1.15,2013-06-05 11:10:00,
2013-06-05 04:20:00,49.0,-99.9,30.04,NNW,347,0.0,1.0,0,0.00,,,0.00,Wunderground v.1.15,2013-06-05 11:20:00,
2013-06-05 04:25:00,49.0,-99.9,30.04,North,1,1.0,1.0,0,0.00,,,0.00,Wunderground v.1.15,2013-06-05 11:25:00,
2013-06-05 04:30:00,48.9,-99.9,30.05,North,1,0.0,1.0,0,0.00,,,0.00,Wunderground v.1.15,2013-06-05 11:30:00,
2013-06-05 04:35:00,48.8,-99.9,30.05,North,1,0.0,1.0,0,0.00,,,0.00,Wunderground v.1.15,2013-06-05 11:35:00,
2013-06-05 04:40:00,48.7,-99.9,30.04,North,1,0.0,1.0,0,0.00,,,0.00,Wunderground v.1.15,2013-06-05 11:40:00,
2013-06-05 04:50:00,48.9,-99.9,30.04,North,351,0.0,1.0,0,0.00,,,0.00,Wunderground v.1.15,2013-06-05 11:50:00,
2013-06-05 04:55:00,48.8,-99.9,30.04,North,351,0.0,1.0,0,0.00,,,0.00,Wunderground v.1.15,2013-06-05 11:55:00,
2013-06-05 05:00:00,48.9,-99.9,30.04,North,352,0.0,1.0,0,0.00,,,0.00,Wunderground v.1.15,2013-06-05 12:00:00,
2013-06-05 05:05:00,49.1,-99.9,30.04,North,353,0.0,1.0,0,0.00,,,0.00,Wunderground v.1.15,2013-06-05 12:05:00,
2013-06-05 05:15:00,49.4,-99.9,30.04,North,354,0.0,1.0,0,0.00,,,0.00,Wunderground v.1.15,2013-06-05 12:15:00,
2013-06-05 05:20:00,49.4,-99.9,30.04,North,354,0.0,1.0,0,0.00,,,0.00,Wunderground v.1.15,2013-06-05 12:20:00,
2013-06-05 05:25:00,49.4,-99.9,30.04,North,354,0.0,1.0,0,0.00,,,0.00,Wunderground v.1.15,2013-06-05 12:25:00,
2013-06-05 05:30:00,49.4,-99.9,30.04,North,354,0.0,1.0,0,0.00,,,0.00,Wunderground v.1.15,2013-06-05 12:30:00,
2013-06-05 05:35:00,49.6,-99.9,30.04,North,354,0.0,1.0,0,0.00,,,0.00,Wunderground v.1.15,2013-06-05 12:35:00,
2013-06-05 05:45:00,49.9,-99.9,30.04,North,11,0.0,1.0,0,0.00,,,0.00,Wunderground v.1.15,2013-06-05 12:45:00,
2013-06-05 05:50:00,50.3,-99.9,30.04,NNE,22,0.0,1.0,0,0.00,,,0.00,Wunderground v.1.15,2013-06-05 12:50:00,
2013-06-05 05:55:00,50.8,-99.9,30.04,NE,39,1.0,1.0,0,0.00,,,0.00,Wunderground v.1.15,2013-06-05 12:55:00,
2013-06-05 06:05:00,51.8,-99.9,30.04,North,354,1.0,1.0,0,0.00,,,0.00,Wunderground v.1.15,2013-06-05 13:05:00,
2013-06-05 06:10:00,52.3,-99.9,30.04,NNE,25,0.0,1.0,0,0.00,,,0.00,Wunderground v.1.15,2013-06-05 13:10:00,
2013-06-05 06:15:00,52.5,-99.9,30.04,NNE,24,0.0,1.0,0,0.00,,,0.00,Wunderground v.1.15,2013-06-05 13:15:00,
2013-06-05 06:20:00,52.8,-99.9,30.04,NNE,23,0.0,1.0,0,0.00,,,0.00,Wunderground v.1.15,2013-06-05 13:20:00,
2013-06-05 06:30:00,53.9,-9.0,30.04,NW,309,0.0,1.0,7,0.00,,,0.00,Wunderground v.1.15,2013-06-05 13:30:00,
2013-06-05 06:35:00,54.4,17.3,30.04,NW,319,0.0,1.0,23,0.00,,,0.00,Wunderground v.1.15,2013-06-05 13:35:00,
2013-06-05 06:40:00,54.6,21.2,30.04,NW,319,0.0,1.0,27,0.00,,,0.00,Wunderground v.1.15,2013-06-05 13:40:00,
2013-06-05 06:45:00,55.0,19.8,30.04,NW,319,0.0,1.0,25,0.00,,,0.00,Wunderground v.1.15,2013-06-05 13:45:00,
2013-06-05 06:50:00,55.4,37.6,30.04,WNW,290,0.0,1.0,51,0.00,,,0.00,Wunderground v.1.15,2013-06-05 13:50:00,
2013-06-05 07:00:00,56.2,45.8,30.05,NNE,20,0.0,1.0,68,0.00,,,0.00,Wunderground v.1.15,2013-06-05 14:00:00,
2013-06-05 07:05:00,56.6,45.8,30.05,East,96,0.0,1.0,67,0.00,,,0.00,Wunderground v.1.15,2013-06-05 14:05:00,
2013-06-05 07:10:00,56.7,46.3,30.05,NE,44,1.0,2.0,68,0.00,,,0.00,Wunderground v.1.15,2013-06-05 14:10:00,
2013-06-05 07:15:00,56.8,45.6,30.05,NW,323,1.0,2.0,66,0.00,,,0.00,Wunderground v.1.15,2013-06-05 14:15:00,
2013-06-05 07:20:00,57.0,46.5,30.06,NNW,343,1.0,1.0,68,0.00,,,0.00,Wunderground v.1.15,2013-06-05 14:20:00,
2013-06-05 07:30:00,57.5,45.8,30.06,NNE,26,0.0,1.0,65,0.00,,,0.00,Wunderground v.1.15,2013-06-05 14:30:00,
2013-06-05 07:35:00,57.9,42.8,30.06,NNE,25,0.0,1.0,57,0.00,,,0.00,Wunderground v.1.15,2013-06-05 14:35:00,
2013-06-05 07:40:00,58.5,42.8,30.06,NNE,25,0.0,1.0,56,0.00,,,0.00,Wunderground v.1.15,2013-06-05 14:40:00,
2013-06-05 07:50:00,59.1,50.5,30.06,NE,46,0.0,1.0,73,0.00,,,0.00,Wunderground v.1.15,2013-06-05 14:50:00,
2013-06-05 07:55:00,59.6,51.3,30.06,NE,46,0.0,1.0,74,0.00,,,0.00,Wunderground v.1.15,2013-06-05 14:55:00,
2013-06-05 08:00:00,60.3,50.5,30.06,NE,45,0.0,1.0,70,0.00,,,0.00,Wunderground v.1.15,2013-06-05 15:00:00,
2013-06-05 08:05:00,61.0,53.4,30.06,NE,46,0.0,1.0,76,0.00,,,0.00,Wunderground v.1.15,2013-06-05 15:05:00,
2013-06-05 08:15:00,62.3,54.3,30.06,East,84,0.0,1.0,75,0.00,,,0.00,Wunderground v.1.15,2013-06-05 15:15:00,
2013-06-05 08:20:00,62.9,54.9,30.06,SE,136,0.0,1.0,75,0.00,,,0.00,Wunderground v.1.15,2013-06-05 15:20:00,
2013-06-05 08:25:00,63.5,55.4,30.06,SE,138,0.0,1.0,75,0.00,,,0.00,Wunderground v.1.15,2013-06-05 15:25:00,
2013-06-05 08:30:00,64.0,55.5,30.06,SE,124,0.0,1.0,74,0.00,,,0.00,Wunderground v.1.15,2013-06-05 15:30:00,
2013-06-05 08:35:00,64.3,56.2,30.07,SE,124,0.0,1.0,75,0.00,,,0.00,Wunderground v.1.15,2013-06-05 15:35:00,
2013-06-05 08:45:00,64.0,55.9,30.07,WNW,285,1.0,2.0,75,0.00,,,0.00,Wunderground v.1.15,2013-06-05 15:45:00,
2013-06-05 08:50:00,64.1,56.0,30.07,East,91,1.0,1.0,75,0.00,,,0.00,Wunderground v.1.15,2013-06-05 15:50:00,
2013-06-05 08:55:00,64.2,56.1,30.07,WSW,255,1.0,1.0,75,0.00,,,0.00,Wunderground v.1.15,2013-06-05 15:55:00,
2013-06-05 09:05:00,64.6,56.5,30.07,SW,226,0.0,1.0,75,0.00,,,0.00,Wunderground v.1.15,2013-06-05 16:05:00,
2013-06-05 09:10:00,64.5,56.4,30.07,SW,233,1.0,1.0,75,0.00,,,0.00,Wunderground v.1.15,2013-06-05 16:10:00,
2013-06-05 09:15:00,64.2,55.7,30.07,WSW,240,1.0,1.0,74,0.00,,,0.00,Wunderground v.1.15,2013-06-05 16:15:00,
2013-06-05 09:20:00,64.4,56.3,30.07,WSW,248,1.0,1.0,75,0.00,,,0.00,Wunderground v.1.15,2013-06-05 16:20:00,
2013-06-05 09:30:00,64.4,55.9,30.08,West,266,2.0,2.0,74,0.00,,,0.00,Wunderground v.1.15,2013-06-05 16:30:00,
2013-06-05 09:35:00,64.1,56.0,30.07,SW,233,2.0,3.0,75,0.00,,,0.00,Wunderground v.1.15,2013-06-05 16:35:00,
2013-06-05 09:40:00,64.0,55.9,30.08,WSW,239,2.0,2.0,75,0.00,,,0.00,Wunderground v.1.15,2013-06-05 16:40:00,
2013-06-05 09:45:00,64.3,56.2,30.08,SW,214,2.0,2.0,75,0.00,,,0.00,Wunderground v.1.15,2013-06-05 16:45:00,
2013-06-05 09:50:00,64.5,56.4,30.08,SW,231,1.0,1.0,75,0.00,,,0.00,Wunderground v.1.15,2013-06-05 16:50:00,
2013-06-05 10:00:00,65.5,57.0,30.08,SSW,211,2.0,2.0,74,0.00,,,0.00,Wunderground v.1.15,2013-06-05 17:00:00,
2013-06-05 10:05:00,65.3,56.4,30.08,SW,224,1.0,2.0,73,0.00,,,0.00,Wunderground v.1.15,2013-06-05 17:05:00,
2013-06-05 10:10:00,64.8,56.7,30.08,WSW,252,2.0,2.0,75,0.00,,,0.00,Wunderground v.1.15,2013-06-05 17:10:00,
2013-06-05 10:15:00,64.7,56.2,30.08,WNW,283,2.0,2.0,74,0.00,,,0.00,Wunderground v.1.15,2013-06-05 17:15:00,
2013-06-05 10:20:00,65.0,56.9,30.08,SSE,158,2.0,2.0,75,0.00,,,0.00,Wunderground v.1.15,2013-06-05 17:20:00,
2013-06-05 10:30:00,65.6,57.1,30.08,South,180,1.0,4.0,74,0.00,,,0.00,Wunderground v.1.15,2013-06-05 17:30:00,
2013-06-05 10:35:00,66.2,58.0,30.08,WNW,290,2.0,4.0,75,0.00,,,0.00,Wunderground v.1.15,2013-06-05 17:35:00,
2013-06-05 10:40:00,66.0,57.1,30.08,West,259,2.0,2.0,73,0.00,,,0.00,Wunderground v.1.15,2013-06-05 17:40:00,
2013-06-05 10:50:00,65.9,57.4,30.08,SSE,157,2.0,2.0,74,0.00,,,0.00,Wunderground v.1.15,2013-06-05 17:50:00,
2013-06-05 10:55:00,66.4,57.1,30.08,SSW,208,2.0,2.0,72,0.00,,,0.00,Wunderground v.1.15,2013-06-05 17:55:00,
2013-06-05 11:00:00,66.3,57.8,30.08,WSW,248,2.0,2.0,74,0.00,,,0.00,Wunderground v.1.15,2013-06-05 18:00:00,
2013-06-05 11:05:00,66.9,57.6,30.08,SSE,153,2.0,2.0,72,0.00,,,0.00,Wunderground v.1.15,2013-06-05 18:05:00,
2013-06-05 11:10:00,67.4,57.7,30.08,WSW,249,2.0,2.0,71,0.00,,,0.00,Wunderground v.1.15,2013-06-05 18:10:00,
2013-06-05 11:20:00,68.4,59.4,30.07,SSW,208,1.0,3.0,73,0.00,,,0.00,Wunderground v.1.15,2013-06-05 18:20:00,
2013-06-05 11:25:00,68.4,59.0,30.07,SSW,200,2.0,3.0,72,0.00,,,0.00,Wunderground v.1.15,2013-06-05 18:25:00,
2013-06-05 11:30:00,69.0,60.0,30.07,SW,214,2.0,5.0,73,0.00,,,0.00,Wunderground v.1.15,2013-06-05 18:30:00,
2013-06-05 11:35:00,69.4,60.0,30.07,SSW,205,2.0,5.0,72,0.00,,,0.00,Wunderground v.1.15,2013-06-05 18:35:00,
2013-06-05 11:45:00,68.9,58.3,30.07,SW,225,2.0,3.0,69,0.00,,,0.00,Wunderground v.1.15,2013-06-05 18:45:00,
2013-06-05 11:50:00,68.9,59.1,30.07,SSE,158,2.0,2.0,71,0.00,,,0.00,Wunderground v.1.15,2013-06-05 18:50:00,
2013-06-05 11:55:00,69.4,59.2,30.07,SW,217,2.0,2.0,70,0.00,,,0.00,Wunderground v.1.15,2013-06-05 18:55:00,
2013-06-05 12:05:00,70.1,59.9,30.07,SSW,193,2.0,5.0,70,0.00,,,0.00,Wunderground v.1.15,2013-06-05 19:05:00,
2013-06-05 12:10:00,70.5,60.6,30.07,WSW,249,2.0,5.0,71,0.00,,,0.00,Wunderground v.1.15,2013-06-05 19:10:00,
2013-06-05 12:15:00,70.2,59.6,30.07,SW,233,2.0,8.0,69,0.00,,,0.00,Wunderground v.1.15,2013-06-05 19:15:00,
2013-06-05 12:20:00,70.3,60.8,30.07,West,259,2.0,2.0,72,0.00,,,0.00,Wunderground v.1.15,2013-06-05 19:20:00,
2013-06-05 12:25:00,71.1,60.4,30.07,SW,217,2.0,3.0,69,0.00,,,0.00,Wunderground v.1.15,2013-06-05 19:25:00,
2013-06-05 12:35:00,71.7,60.6,30.07,SW,226,2.0,2.0,68,0.00,,,0.00,Wunderground v.1.15,2013-06-05 19:35:00,
2013-06-05 12:40:00,71.8,59.8,30.06,SW,223,2.0,3.0,66,0.00,,,0.00,Wunderground v.1.15,2013-06-05 19:40:00,
2013-06-05 12:45:00,71.9,59.5,30.06,WSW,245,2.0,3.0,65,0.00,,,0.00,Wunderground v.1.15,2013-06-05 19:45:00,
2013-06-05 12:50:00,72.0,59.6,30.06,SE,143,2.0,2.0,65,0.00,,,0.00,Wunderground v.1.15,2013-06-05 19:50:00,
2013-06-05 13:00:00,72.0,59.6,30.06,SSE,158,2.0,2.0,65,0.00,,,0.00,Wunderground v.1.15,2013-06-05 20:00:00,
2013-06-05 13:05:00,72.6,59.3,30.06,WSW,248,2.0,2.0,63,0.00,,,0.00,Wunderground v.1.15,2013-06-05 20:05:00,
2013-06-05 13:10:00,72.9,60.9,30.06,WNW,294,2.0,2.0,66,0.00,,,0.00,Wunderground v.1.15,2013-06-05 20:10:00,
2013-06-05 13:15:00,73.2,59.8,30.06,West,276,2.0,2.0,63,0.00,,,0.00,Wunderground v.1.15,2013-06-05 20:15:00,
2013-06-05 13:20:00,73.3,59.5,30.06,SW,219,2.0,2.0,62,0.00,,,0.00,Wunderground v.1.15,2013-06-05 20:20:00,
2013-06-05 13:30:00,73.0,59.7,30.06,SW,233,2.0,4.0,63,0.00,,,0.00,Wunderground v.1.15,2013-06-05 20:30:00,
2013-06-05 13:35:00,73.0,59.7,30.06,WNW,282,2.0,4.0,63,0.00,,,0.00,Wunderground v.1.15,2013-06-05 20:35:00,
2013-06-05 13:40:00,73.2,60.3,30.06,SSW,208,2.0,5.0,64,0.00,,,0.00,Wunderground v.1.15,2013-06-05 20:40:00,
2013-06-05 13:50:00,73.5,61.4,30.06,WNW,287,2.0,2.0,66,0.00,,,0.00,Wunderground v.1.15,2013-06-05 20:50:00,
2013-06-05 13:55:00,73.9,60.1,30.06,South,186,2.0,4.0,62,0.00,,,0.00,Wunderground v.1.15,2013-06-05 20:55:00,
2013-06-05 14:00:00,74.5,60.2,30.05,South,183,2.0,2.0,61,0.00,,,0.00,Wunderground v.1.15,2013-06-05 21:00:00,
2013-06-05 14:05:00,74.8,60.0,30.05,West,261,3.0,3.0,60,0.00,,,0.00,Wunderground v.1.15,2013-06-05 21:05:00,
2013-06-05 14:15:00,74.6,59.3,30.05,WSW,252,3.0,3.0,59,0.00,,,0.00,Wunderground v.1.15,2013-06-05 21:15:00,
2013-06-05 14:20:00,74.7,58.9,30.05,South,169,3.0,3.0,58,0.00,,,0.00,Wunderground v.1.15,2013-06-05 21:20:00,
2013-06-05 14:25:00,75.2,58.9,30.05,WSW,257,3.0,4.0,57,0.00,,,0.00,Wunderground v.1.15,2013-06-05 21:25:00,
2013-06-05 14:30:00,74.9,57.1,30.04,SW,214,2.0,2.0,54,0.00,,,0.00,Wunderground v.1.15,2013-06-05 21:30:00,
2013-06-05 14:35:00,75.2,59.4,30.04,South,172,2.0,3.0,58,0.00,,,0.00,Wunderground v.1.15,2013-06-05 21:35:00,
2013-06-05 14:45:00,75.8,60.9,30.04,NE,38,2.0,3.0,60,0.00,,,0.00,Wunderground v.1.15,2013-06-05 21:45:00,
2013-06-05 14:50:00,75.9,60.1,30.04,SW,226,2.0,2.0,58,0.00,,,0.00,Wunderground v.1.15,2013-06-05 21:50:00,
2013-06-05 14:55:00,76.1,59.3,30.04,WSW,257,2.0,2.0,56,0.00,,,0.00,Wunderground v.1.15,2013-06-05 21:55:00,
2013-06-05 15:00:00,76.5,59.6,30.04,SSW,200,2.0,2.0,56,0.00,,,0.00,Wunderground v.1.15,2013-06-05 22:00:00,
2013-06-05 15:10:00,76.8,60.4,30.03,SW,228,2.0,2.0,57,0.00,,,0.00,Wunderground v.1.15,2013-06-05 22:10:00,
2013-06-05 15:15:00,76.8,58.9,30.03,SW,229,2.0,2.0,54,0.00,,,0.00,Wunderground v.1.15,2013-06-05 22:15:00,
2013-06-05 15:20:00,76.7,61.3,30.03,South,173,2.0,3.0,59,0.00,,,0.00,Wunderground v.1.15,2013-06-05 22:20:00,
2013-06-05 15:25:00,77.2,61.3,30.03,SW,225,2.0,3.0,58,0.00,,,0.00,Wunderground v.1.15,2013-06-05 22:25:00,
2013-06-05 15:35:00,77.0,60.1,30.03,SW,214,3.0,3.0,56,0.00,,,0.00,Wunderground v.1.15,2013-06-05 22:35:00,
2013-06-05 15:40:00,77.0,59.6,30.03,SW,214,2.0,9.0,55,0.00,,,0.00,Wunderground v.1.15,2013-06-05 22:40:00,
2013-06-05 15:45:00,76.1,58.2,30.03,West,262,3.0,9.0,54,0.00,,,0.00,Wunderground v.1.15,2013-06-05 22:45:00,
2013-06-05 15:50:00,76.4,60.0,30.03,South,172,3.0,5.0,57,0.00,,,0.00,Wunderground v.1.15,2013-06-05 22:50:00,
2013-06-05 16:00:00,76.4,61.5,30.02,West,278,2.0,3.0,60,0.00,,,0.00,Wunderground v.1.15,2013-06-05 23:00:00,
2013-06-05 16:05:00,76.8,60.4,30.03,SW,229,2.0,3.0,57,0.00,,,0.00,Wunderground v.1.15,2013-06-05 23:05:00,
2013-06-05 16:10:00,77.0,57.5,30.03,WSW,252,2.0,2.0,51,0.00,,,0.00,Wunderground v.1.15,2013-06-05 23:10:00,
2013-06-05 16:19:00,77.4,57.3,30.02,South,170,1.0,2.0,50,0.00,,,0.00,Wunderground v.1.15,2013-06-05 23:19:00,
2013-06-05 16:25:00,77.0,57.5,30.02,SSW,212,2.0,4.0,51,0.00,,,0.00,Wunderground v.1.15,2013-06-05 23:25:00,
2013-06-05 16:30:00,77.0,59.1,30.02,WSW,239,2.0,2.0,54,0.00,,,0.00,Wunderground v.1.15,2013-06-05 23:30:00,
2013-06-05 16:35:00,77.1,59.2,30.02,SSE,152,2.0,3.0,54,0.00,,,0.00,Wunderground v.1.15,2013-06-05 23:35:00,
2013-06-05 16:40:00,77.0,59.6,30.02,South,184,2.0,3.0,55,0.00,,,0.00,Wunderground v.1.15,2013-06-05 23:40:00,
2013-06-05 16:50:00,76.2,59.9,30.02,SW,218,2.0,2.0,57,0.00,,,0.00,Wunderground v.1.15,2013-06-05 23:50:00,
2013-06-05 16:55:00,76.1,59.3,30.02,SW,225,2.0,2.0,56,0.00,,,0.00,Wunderground v.1.15,2013-06-05 23:55:00,
2013-06-05 17:00:00,75.6,57.8,30.02,SW,214,2.0,2.0,54,0.00,,,0.00,Wunderground v.1.15,2013-06-06 00:00:00,
2013-06-05 17:05:00,75.7,60.8,30.02,SW,233,1.0,2.0,60,0.00,,,0.00,Wunderground v.1.15,2013-06-06 00:05:00,
2013-06-05 17:15:00,75.5,58.7,30.02,WNW,295,2.0,3.0,56,0.00,,,0.00,Wunderground v.1.15,2013-06-06 00:15:00,
2013-06-05 17:20:00,75.5,59.2,30.02,East,97,2.0,2.0,57,0.00,,,0.00,Wunderground v.1.15,2013-06-06 00:20:00,
2013-06-05 17:25:00,76.0,61.1,30.01,SE,127,1.0,2.0,60,0.00,,,0.00,Wunderground v.1.15,2013-06-06 00:25:00,
2013-06-05 17:30:00,75.6,60.7,30.01,WSW,252,1.0,1.0,60,0.00,,,0.00,Wunderground v.1.15,2013-06-06 00:30:00,
2013-06-05 17:40:00,75.3,60.9,30.01,WSW,239,1.0,1.0,61,0.00,,,0.00,Wunderground v.1.15,2013-06-06 00:40:00,
2013-06-05 17:45:00,75.3,59.0,30.01,West,278,1.0,2.0,57,0.00,,,0.00,Wunderground v.1.15,2013-06-06 00:45:00,
2013-06-05 17:50:00,74.8,60.0,30.01,SW,229,1.0,3.0,60,0.00,,,0.00,Wunderground v.1.15,2013-06-06 00:50:00,
2013-06-05 18:00:00,73.5,60.1,30.01,NW,319,1.0,2.0,63,0.00,,,0.00,Wunderground v.1.15,2013-06-06 01:00:00,
2013-06-05 18:05:00,73.3,59.5,30.01,West,259,1.0,4.0,62,0.00,,,0.00,Wunderground v.1.15,2013-06-06 01:05:00,
2013-06-05 18:10:00,72.3,59.0,30.01,SW,222,2.0,2.0,63,0.00,,,0.00,Wunderground v.1.15,2013-06-06 01:10:00,
2013-06-05 18:15:00,71.8,59.0,30.01,SW,223,3.0,3.0,64,0.00,,,0.00,Wunderground v.1.15,2013-06-06 01:15:00,
2013-06-05 18:20:00,71.3,58.9,30.01,SW,225,3.0,4.0,65,0.00,,,0.00,Wunderground v.1.15,2013-06-06 01:20:00,
2013-06-05 18:30:00,70.2,59.1,30.01,SW,217,3.0,3.0,68,0.00,,,0.00,Wunderground v.1.15,2013-06-06 01:30:00,
2013-06-05 18:35:00,69.9,60.1,30.01,SSW,208,1.0,3.0,71,0.00,,,0.00,Wunderground v.1.15,2013-06-06 01:35:00,
2013-06-05 18:40:00,69.6,58.2,30.01,West,269,2.0,2.0,67,0.00,,,0.00,Wunderground v.1.15,2013-06-06 01:40:00,
2013-06-05 18:45:00,69.4,59.6,30.00,SSW,198,2.0,2.0,71,0.00,,,0.00,Wunderground v.1.15,2013-06-06 01:45:00,
2013-06-05 18:55:00,69.2,59.0,30.01,SSW,210,1.0,3.0,70,0.00,,,0.00,Wunderground v.1.15,2013-06-06 01:55:00,
2013-06-05 19:00:00,68.9,58.7,30.01,SSE,147,1.0,1.0,70,0.00,,,0.00,Wunderground v.1.15,2013-06-06 02:00:00,
2013-06-05 19:05:00,68.6,58.4,30.01,SW,218,1.0,2.0,70,0.00,,,0.00,Wunderground v.1.15,2013-06-06 02:05:00,
2013-06-05 19:10:00,68.4,58.2,30.01,SW,231,2.0,3.0,70,0.00,,,0.00,Wunderground v.1.15,2013-06-06 02:10:00,
2013-06-05 19:20:00,67.8,58.4,30.01,SW,226,3.0,3.0,72,0.00,,,0.00,Wunderground v.1.15,2013-06-06 02:20:00,
2013-06-05 19:25:00,67.5,58.2,30.00,SW,215,2.0,4.0,72,0.00,,,0.00,Wunderground v.1.15,2013-06-06 02:25:00,
2013-06-05 19:30:00,67.1,58.2,30.01,SW,232,1.0,1.0,73,0.00,,,0.00,Wunderground v.1.15,2013-06-06 02:30:00,
2013-06-05 19:35:00,66.6,57.7,30.01,SE,130,1.0,1.0,73,0.00,,,0.00,Wunderground v.1.15,2013-06-06 02:35:00,
2013-06-05 19:45:00,65.6,57.1,30.01,ENE,57,1.0,1.0,74,0.00,,,0.00,Wunderground v.1.15,2013-06-06 02:45:00,
2013-06-05 19:50:00,65.1,57.3,30.01,SE,137,1.0,1.0,76,0.00,,,0.00,Wunderground v.1.15,2013-06-06 02:50:00,
2013-06-05 19:55:00,64.6,56.9,30.01,SE,127,0.0,1.0,76,0.00,,,0.00,Wunderground v.1.15,2013-06-06 02:55:00,
2013-06-05 20:00:00,64.1,56.4,30.01,SE,136,0.0,1.0,76,0.00,,,0.00,Wunderground v.1.15,2013-06-06 03:00:00,
2013-06-05 20:10:00,63.3,56.0,30.01,ESE,121,0.0,1.0,77,0.00,,,0.00,Wunderground v.1.15,2013-06-06 03:10:00,
2013-06-05 20:15:00,63.0,55.7,30.01,SE,137,0.0,1.0,77,0.00,,,0.00,Wunderground v.1.15,2013-06-06 03:15:00,
2013-06-05 20:20:00,62.6,55.3,30.01,SSE,152,1.0,1.0,77,0.00,,,0.00,Wunderground v.1.15,2013-06-06 03:20:00,
2013-06-05 20:29:00,61.9,54.6,30.01,SW,222,0.0,1.0,77,0.00,,,0.00,Wunderground v.1.15,2013-06-06 03:29:00,
2013-06-05 20:35:00,61.5,54.2,30.02,WSW,246,0.0,1.0,77,0.00,,,0.00,Wunderground v.1.15,2013-06-06 03:35:00,
2013-06-05 20:40:00,61.0,53.4,30.02,SW,214,0.0,1.0,76,0.00,,,0.00,Wunderground v.1.15,2013-06-06 03:40:00,
2013-06-05 20:45:00,60.7,53.1,30.02,SW,214,0.0,1.0,76,0.00,,,0.00,Wunderground v.1.15,2013-06-06 03:45:00,
2013-06-05 20:50:00,60.4,52.4,30.02,SE,127,0.0,1.0,75,0.00,,,0.00,Wunderground v.1.15,2013-06-06 03:50:00,
2013-06-05 21:00:00,59.8,51.9,30.02,South,190,0.0,1.0,75,0.00,,,0.00,Wunderground v.1.15,2013-06-06 04:00:00,
2013-06-05 21:05:00,59.3,50.6,30.02,SSW,211,0.0,1.0,73,0.00,,,0.00,Wunderground v.1.15,2013-06-06 04:05:00,
2013-06-05 21:10:00,58.9,49.5,30.02,SSW,210,0.0,1.0,71,0.00,,,0.00,Wunderground v.1.15,2013-06-06 04:10:00,
2013-06-05 21:15:00,58.6,47.7,30.02,SSW,211,0.0,1.0,67,0.00,,,0.00,Wunderground v.1.15,2013-06-06 04:15:00,
2013-06-05 21:25:00,57.9,45.4,30.02,SE,141,0.0,1.0,63,0.00,,,0.00,Wunderground v.1.15,2013-06-06 04:25:00,
2013-06-05 21:30:00,57.7,43.5,30.02,SE,141,0.0,1.0,59,0.00,,,0.00,Wunderground v.1.15,2013-06-06 04:30:00,
2013-06-05 21:35:00,57.4,42.3,30.03,SE,141,0.0,1.0,57,0.00,,,0.00,Wunderground v.1.15,2013-06-06 04:35:00,
2013-06-05 21:45:00,56.8,37.3,30.02,SE,141,0.0,1.0,48,0.00,,,0.00,Wunderground v.1.15,2013-06-06 04:45:00,
2013-06-05 21:50:00,56.5,34.3,30.02,SE,141,0.0,1.0,43,0.00,,,0.00,Wunderground v.1.15,2013-06-06 04:50:00,
2013-06-05 21:53:00,55.9,29.3,30.03,SE,135,0.0,-999.0,36,0.00,,,0.00,Wunderground v.1.15,2013-06-06 04:53:00,
2013-06-05 21:55:00,56.2,33.4,30.03,SE,141,0.0,1.0,42,0.00,,,0.00,Wunderground v.1.15,2013-06-06 04:55:00,
2013-06-05 21:58:00,55.9,29.3,30.03,SE,135,0.0,-999.0,36,0.00,,,0.00,Wunderground v.1.15,2013-06-06 04:58:00,
2013-06-05 22:00:00,55.9,29.3,30.03,SE,141,0.0,1.0,36,0.00,,,0.00,Wunderground v.1.15,2013-06-06 05:00:00,
2013-06-05 22:03:00,55.9,29.3,30.03,SE,135,0.0,-999.0,36,0.00,,,0.00,Wunderground v.1.15,2013-06-06 05:03:00,
2013-06-05 22:08:00,55.9,29.3,30.03,SE,135,0.0,-999.0,36,0.00,,,0.00,Wunderground v.1.15,2013-06-06 05:08:00,
2013-06-05 22:10:00,55.6,17.3,30.03,SE,141,0.0,1.0,22,0.00,,,0.00,Wunderground v.1.15,2013-06-06 05:10:00,
2013-06-05 22:13:00,55.9,29.3,30.03,SE,135,0.0,-999.0,36,0.00,,,0.00,Wunderground v.1.15,2013-06-06 05:13:00,
2013-06-05 22:15:00,55.4,12.5,30.03,SE,141,0.0,1.0,18,0.00,,,0.00,Wunderground v.1.15,2013-06-06 05:15:00,
2013-06-05 22:17:00,55.0,-5.4,30.02,N/A,-737280,0.0,-999.0,8,0.00,,,0.00,Wunderground v.1.15,2013-06-06 05:17:00,
2013-06-05 22:18:00,55.0,-5.4,30.02,N/A,-737280,0.0,-999.0,8,0.00,,,0.00,Wunderground v.1.15,2013-06-06 05:18:00,
2013-06-05 22:20:00,55.3,3.5,30.03,SE,141,0.0,1.0,12,0.00,,,0.00,Wunderground v.1.15,2013-06-06 05:20:00,
2013-06-05 22:22:00,55.0,-5.4,30.02,N/A,-737280,0.0,-999.0,8,0.00,,,0.00,Wunderground v.1.15,2013-06-06 05:22:00,
2013-06-05 22:23:00,55.0,-5.4,30.02,N/A,-737280,0.0,-999.0,8,0.00,,,0.00,Wunderground v.1.15,2013-06-06 05:23:00,
2013-06-05 22:25:00,55.1,-2.8,30.02,SE,141,0.0,1.0,9,0.00,,,0.00,Wunderground v.1.15,2013-06-06 05:25:00,
2013-06-05 22:27:00,55.0,-5.4,30.02,N/A,-737280,0.0,-999.0,8,0.00,,,0.00,Wunderground v.1.15,2013-06-06 05:27:00,
2013-06-05 22:28:00,55.0,-5.4,30.02,N/A,-737280,0.0,-999.0,8,0.00,,,0.00,Wunderground v.1.15,2013-06-06 05:28:00,
2013-06-05 22:32:00,55.0,-5.4,30.02,N/A,-737280,0.0,-999.0,8,0.00,,,0.00,Wunderground v.1.15,2013-06-06 05:32:00,
2013-06-05 22:35:00,54.8,-15.1,30.02,SE,141,0.0,1.0,5,0.00,,,0.00,Wunderground v.1.15,2013-06-06 05:35:00,
2013-06-05 22:37:00,55.0,-5.4,30.02,N/A,-737280,0.0,-999.0,8,0.00,,,0.00,Wunderground v.1.15,2013-06-06 05:37:00,
2013-06-05 22:40:00,54.6,-25.0,30.02,SE,141,0.0,1.0,3,0.00,,,0.00,Wunderground v.1.15,2013-06-06 05:40:00,
2013-06-05 22:42:00,55.0,-5.4,30.02,N/A,-737280,0.0,-999.0,8,0.00,,,0.00,Wunderground v.1.15,2013-06-06 05:42:00,
2013-06-05 22:45:00,54.5,-99.9,30.02,SE,141,0.0,1.0,0,0.00,,,0.00,Wunderground v.1.15,2013-06-06 05:45:00,
2013-06-05 22:47:00,53.9,-99.9,30.03,N/A,-737280,0.0,-999.0,0,0.00,,,0.00,Wunderground v.1.15,2013-06-06 05:47:00,
2013-06-05 22:52:00,53.9,-99.9,30.03,N/A,-737280,0.0,-999.0,0,0.00,,,0.00,Wunderground v.1.15,2013-06-06 05:52:00,
2013-06-05 22:55:00,54.1,-99.9,30.03,SE,141,0.0,0.0,0,0.00,,,0.00,Wunderground v.1.15,2013-06-06 05:55:00,
2013-06-05 22:57:00,53.9,-99.9,30.03,N/A,-737280,0.0,-999.0,0,0.00,,,0.00,Wunderground v.1.15,2013-06-06 05:57:00,
2013-06-05 23:05:00,53.7,-99.9,30.03,SE,141,0.0,0.0,0,0.00,,,0.00,Wunderground v.1.15,2013-06-06 06:05:00,
2013-06-05 23:20:00,53.3,-99.9,30.03,SE,141,0.0,0.0,0,0.00,,,0.00,Wunderground v.1.15,2013-06-06 06:20:00,
2013-06-05 23:25:00,53.2,-99.9,30.02,SE,141,0.0,0.0,0,0.00,,,0.00,Wunderground v.1.15,2013-06-06 06:25:00,
2013-06-05 23:35:00,52.8,-99.9,30.02,SE,141,0.0,0.0,0,0.00,,,0.00,Wunderground v.1.15,2013-06-06 06:35:00,
2013-06-05 23:40:00,52.5,-99.9,30.03,SE,141,0.0,0.0,0,0.00,,,0.00,Wunderground v.1.15,2013-06-06 06:40:00,
2013-06-05 23:45:00,52.5,-99.9,30.03,SE,141,0.0,0.0,0,0.00,,,0.00,Wunderground v.1.15,2013-06-06 06:45:00,
2013-06-05 23:50:00,52.4,-99.9,30.02,SE,141,0.0,0.0,0,0.00,,,0.00,Wunderground v.1.15,2013-06-06 06:50:00,